[[{"header":{"parameterUnit":"m.s-1","parameterCategory":1,"la1":30.2991,"la2":30.254,"lo1":-89.0895,"lo2":-89.0444,"dy":0.0017,"dx":0.0017,"nx":28,"ny":28,"refTime":"2024-07-10T09:00:00:Z","depth":0,"parameterNumber":2,"parameterNumberName":"U-component_of_WINDS"},"data":[0,0,0,0,0,0,0,0,0,0,0,0,0,0,0,0,0,0,0,0,0,0,0,0,0,0,0,0,0,0,0,0,0,0,0,0,0,0,0,0,0,0,0,0,0,0,0,0,0,0,0,0,0,0,0,0,0,0,4.2654,4.2656,0,4.2894,4.2897,4.29,4.2914,4.2912,4.2909,4.2906,4.3152,4.3161,4.317,0,0,0,0,0,0,0,0,0,0,0,0,0,4.2203,4.2212,4.2653,4.2656,4.2659,4.2894,4.2897,4.2901,4.2915,4.2912,4.2908,4.2905,4.3149,4.316,4.3171,0,0,0,0,0,0,0,0,0,0,0,0,0,4.2417,4.2214,4.2653,4.2695,4.2701,4.2893,4.2897,4.2901,4.2916,4.2911,4.2907,4.2903,4.3146,4.3159,4.3173,4.3339,0,0,4.3214,4.322,0,0,0,0,0,0,0,0,4.2405,4.2434,4.2686,4.2692,4.2699,4.287,4.2829,4.3048,4.2917,4.2834,4.2906,4.2901,4.3062,4.3082,4.3136,4.3351,4.3361,4.3216,4.3224,4.323,4.3234,0,0,0,0,0,0,0,4.239,4.2423,4.2749,4.2689,4.2698,4.2701,4.2727,4.2871,4.2968,4.2841,4.2843,4.2871,4.3065,4.3123,4.3142,4.3365,4.3215,4.3227,4.3236,4.3241,4.3726,4.373,0,0,0,0,0,0,4.2367,4.2411,4.2741,4.2756,4.2539,4.2712,4.2741,4.2819,4.2967,4.2985,4.2874,4.2871,4.3102,4.3126,4.3151,4.3353,4.323,4.3242,4.325,4.3721,4.3727,4.3732,0,0,0,0,0,0,4.2358,4.2397,4.2731,4.2584,4.2627,4.2724,4.2812,4.2826,4.2885,4.2992,4.3009,4.2916,4.31,4.3132,4.3292,4.3362,4.3249,4.3261,4.3715,4.3723,4.3729,4.3761,0,0,0,0,0,0,4.2345,4.2393,4.2458,4.2585,4.2635,4.2869,4.2817,4.2834,4.2908,4.2906,4.3035,4.3053,4.3099,4.3271,4.3305,4.3379,4.3272,4.371,4.3719,4.3727,4.3754,4.3768,4.378,0,0,0,0,0,4.2329,4.2458,4.2461,4.2501,4.2718,4.2873,4.2901,4.2951,4.2914,4.2979,4.3048,4.3049,4.335,4.3288,4.3326,4.3405,4.3705,4.3716,4.3726,4.3748,4.3765,4.378,0,0,0,0,0,0,4.2336,4.2475,4.2481,4.2655,4.2752,4.2875,4.2959,4.2968,4.3078,4.3071,4.3129,4.3158,4.3315,4.3377,4.3305,4.3573,4.3523,4.3542,4.3526,4.3544,4.3557,4.3537,4.3283,0,0,0,0,0,4.2358,4.2473,4.2588,4.2731,4.2779,4.2861,4.293,4.296,4.3063,4.3104,4.3184,4.3284,4.34,4.3476,4.3589,4.3764,4.3791,4.3837,4.385,4.386,4.3875,4.3969,4.399,4.3766,4.3766,4.3766,0,0,4.2404,4.2495,4.2564,4.2734,4.2813,4.2929,4.2895,4.302,4.3107,4.3123,4.3278,4.3341,4.3455,4.3622,4.37,4.3678,4.3943,4.3873,4.3881,4.389,4.3982,4.4003,4.4021,4.3773,4.3772,4.3771,0,0,4.2548,4.2629,4.2755,4.2834,4.2954,4.3007,4.3037,4.316,4.3201,4.3358,4.3372,4.3476,4.3677,4.3757,4.3824,4.3996,4.4,4.4032,4.41,4.4191,4.4208,4.4224,4.4283,4.4304,4.4047,4.4047,4.4047,0,4.259,4.2766,4.2819,4.2943,4.3017,4.3037,4.3165,4.3239,4.339,4.344,4.3414,4.3664,4.3743,4.3927,4.3969,4.4024,4.4059,4.4016,4.4202,4.4218,4.4233,4.429,4.4312,4.405,4.4049,4.4049,4.4049,0,4.2811,4.2933,4.3021,4.3165,4.3249,4.3374,4.3444,4.3523,4.3546,4.3602,4.376,4.3856,4.3987,4.4034,4.4059,4.4222,4.4205,4.419,4.414,4.4257,4.4311,4.4333,4.4054,4.4053,4.4052,4.4051,0,0,4.2964,4.3135,4.3166,4.3231,4.3364,4.3459,4.3585,4.3714,4.3779,4.3883,4.3988,4.4157,4.4143,4.4219,4.4252,4.4333,4.446,4.4308,4.4311,4.433,4.4643,4.4651,4.4676,4.4464,4.4469,4.4472,4.4632,0,4.312,4.3344,4.3394,4.3587,4.3699,4.372,4.3829,4.3922,4.3978,4.408,4.4142,4.4259,4.4234,4.4279,4.436,4.4427,4.4523,4.4417,4.4561,4.4565,4.4529,4.4705,4.4715,4.4861,4.4654,4.4658,4.4661,0,4.3331,4.3438,4.3642,4.3758,4.3807,4.3905,4.4026,4.4125,4.423,4.4264,4.4349,4.4374,4.4504,4.445,4.463,4.4556,4.4618,4.466,4.4667,4.468,4.4618,4.472,4.4909,4.493,4.4695,4.4692,4.469,0,4.3419,4.3614,4.3761,4.3816,4.3957,4.4024,4.4086,4.4187,4.4261,4.4367,4.4415,4.4535,4.46,4.4692,4.4748,4.4704,4.4922,4.4874,4.4953,4.4951,4.4995,4.4991,4.5194,4.504,4.504,4.504,4.5039,0,4.3585,4.3708,4.3801,4.3891,4.4029,4.4086,4.422,4.4282,4.4372,4.4473,4.45,4.4594,4.4664,4.4767,4.4812,4.4952,4.4982,4.5013,4.5022,4.5009,4.5004,4.5048,4.5038,4.5046,4.5044,4.5043,4.5042,0,4.3705,4.3773,4.3934,4.4054,4.4086,4.4182,4.4285,4.4372,4.4428,4.4555,4.4589,4.4677,4.48,4.4865,4.502,4.505,4.5206,4.5212,4.517,4.5174,4.5248,4.5239,4.5484,4.5518,4.5344,4.5345,4.5347,0,4.3806,4.3901,4.4031,4.41,4.4163,4.4275,4.435,4.441,4.4487,4.4613,4.4685,4.481,4.4912,4.5108,4.5185,4.5303,4.531,4.5388,4.5328,4.531,4.5308,4.53,4.5309,4.5397,4.5399,4.54,4.5402,0,4.3976,4.4004,4.4112,4.4231,4.432,4.4417,4.4512,4.4568,4.4643,4.4728,4.4854,4.4934,4.5091,4.5213,4.5337,4.54,4.5413,4.542,4.5444,4.543,4.54,4.5414,4.5196,4.5414,4.5412,4.5412,4.5411,4.541,4.4087,4.4172,4.4276,4.4394,4.4472,4.4561,4.4648,4.4715,4.4821,4.4953,4.4983,4.5115,4.5217,4.5384,4.5451,4.5554,4.5539,4.5574,4.5583,4.559,4.5591,4.5386,4.5578,4.5577,4.5577,4.5577,4.5577,0,4.4256,4.4324,4.4432,4.4565,4.4657,4.4663,4.4769,4.4845,4.4962,4.5056,4.5156,4.53,4.5419,4.5506,4.5627,4.5693,4.5702,4.5723,4.5717,4.573,4.56,4.5566,4.5713,4.5713,4.5713,4.5713,4.5713,4.5713,4.4354,4.4496,4.4537,4.4718,4.4785,4.4915,4.4975,4.5056,4.5131,4.5291,4.5389,4.5445,4.5536,4.5664,4.5773,4.5795,4.5837,4.5857,4.5879,4.5755,4.574,4.5726,4.5694,4.5866,4.5866,4.6001,4.6002,4.6003]},{"header":{"parameterUnit":"m.s-1","parameterCategory":1,"la1":30.2991,"la2":30.254,"lo1":-89.0895,"lo2":-89.0444,"dy":0.0017,"dx":0.0017,"nx":28,"ny":28,"refTime":"2024-07-10T09:00:00:Z","depth":0,"parameterNumber":3,"parameterNumberName":"V-component_of_WINDS"},"data":[0,0,0,0,0,0,0,0,0,0,0,0,0,0,0,0,0,0,0,0,0,0,0,0,0,0,0,0,0,0,0,0,0,0,0,0,0,0,0,0,0,0,0,0,0,0,0,0,0,0,0,0,0,0,0,0,0,0,4.8188,4.8188,0,4.8205,4.8205,4.8205,4.8138,4.8136,4.8134,4.8133,4.815,4.8152,4.8154,0,0,0,0,0,0,0,0,0,0,0,0,0,4.8095,4.8097,4.8188,4.8188,4.8188,4.8205,4.8205,4.8205,4.8139,4.8136,4.8134,4.8132,4.8149,4.8152,4.8155,0,0,0,0,0,0,0,0,0,0,0,0,0,4.8126,4.8097,4.8188,4.8157,4.8154,4.8205,4.8205,4.8205,4.8139,4.8136,4.8133,4.8131,4.8148,4.8152,4.8155,4.8236,0,0,4.8166,4.8167,0,0,0,0,0,0,0,0,4.8124,4.8129,4.8161,4.8159,4.8156,4.8166,4.8179,4.8216,4.814,4.8145,4.8133,4.8129,4.8158,4.816,4.817,4.8237,4.8237,4.8166,4.8168,4.8169,4.817,0,0,0,0,0,0,0,4.8122,4.8128,4.8195,4.8162,4.8159,4.8141,4.8143,4.8185,4.8168,4.8144,4.814,4.8142,4.8156,4.8167,4.817,4.8238,4.8166,4.8169,4.8171,4.8172,4.8367,4.8369,0,0,0,0,0,0,4.8124,4.8127,4.8194,4.8195,4.8133,4.8146,4.8147,4.8166,4.8167,4.8164,4.8145,4.8139,4.8162,4.8166,4.817,4.8261,4.8169,4.8173,4.8175,4.8364,4.8367,4.8371,0,0,0,0,0,0,4.8122,4.8131,4.8193,4.816,4.8166,4.815,4.8173,4.8168,4.8179,4.8168,4.8164,4.816,4.816,4.8165,4.8219,4.8261,4.8174,4.8177,4.836,4.8365,4.8369,4.8447,0,0,0,0,0,0,4.812,4.8131,4.8162,4.8161,4.8168,4.8243,4.8175,4.8171,4.8185,4.8178,4.818,4.8178,4.8158,4.8214,4.8222,4.8264,4.818,4.8356,4.8362,4.8367,4.844,4.8453,4.8465,0,0,0,0,0,4.8117,4.8184,4.8164,4.8173,4.8207,4.8245,4.825,4.8226,4.8189,4.8219,4.8211,4.8178,4.8256,4.822,4.8229,4.8273,4.8353,4.836,4.8367,4.8435,4.8451,4.8464,0,0,0,0,0,0,4.8192,4.8184,4.8161,4.823,4.8239,4.8234,4.8272,4.8244,4.8264,4.8256,4.8225,4.8226,4.8284,4.8284,4.8245,4.8349,4.8298,4.8307,4.8346,4.8362,4.8374,4.8371,4.8183,0,0,0,0,0,4.8216,4.8249,4.824,4.8301,4.8307,4.8289,4.8305,4.8285,4.8293,4.8296,4.8292,4.8301,4.8326,4.8345,4.8368,4.844,4.8438,4.8475,4.8487,4.8497,4.8504,4.8539,4.8554,4.8393,4.8393,4.8393,0,0,4.8268,4.8267,4.8289,4.8316,4.8321,4.8353,4.8292,4.833,4.8353,4.8302,4.8351,4.8349,4.8356,4.8418,4.8445,4.842,4.8548,4.8506,4.8514,4.8516,4.8547,4.8562,4.8576,4.8398,4.8397,4.8396,0,0,4.8376,4.8381,4.843,4.8435,4.8442,4.8429,4.8441,4.844,4.8436,4.8485,4.8446,4.8473,4.8519,4.8524,4.8534,4.8641,4.8609,4.865,4.8713,4.8746,4.8759,4.877,4.8805,4.8818,4.8658,4.8658,4.8658,0,4.8439,4.8486,4.846,4.8498,4.851,4.8464,4.8513,4.8519,4.8534,4.8542,4.8513,4.8568,4.857,4.8631,4.8656,4.8667,4.8677,4.8648,4.876,4.877,4.878,4.8813,4.8827,4.8662,4.8662,4.8661,4.8661,0,4.8561,4.8594,4.8633,4.8646,4.8663,4.8707,4.8685,4.8705,4.8683,4.8673,4.8722,4.8722,4.8743,4.8757,4.8737,4.8814,4.8797,4.8765,4.8713,4.88,4.883,4.8843,4.8669,4.8667,4.8666,4.8665,0,0,4.8718,4.8713,4.8728,4.8731,4.8734,4.8759,4.88,4.882,4.8835,4.8847,4.8878,4.8917,4.8886,4.8896,4.8876,4.8907,4.8987,4.8869,4.8869,4.8888,4.9067,4.909,4.9105,4.8967,4.8969,4.8971,4.9066,0,4.8821,4.889,4.8865,4.8935,4.8963,4.8919,4.8954,4.8959,4.895,4.8972,4.8962,4.8989,4.8948,4.8953,4.8981,4.8971,4.9022,4.8965,4.8994,4.8995,4.899,4.9121,4.9146,4.9235,4.9078,4.908,4.9081,0,4.8952,4.8966,4.9038,4.9032,4.9043,4.9075,4.9089,4.9111,4.9115,4.9106,4.9116,4.9089,4.9127,4.9077,4.9127,4.9088,4.9099,4.9096,4.9098,4.9098,4.9042,4.9122,4.9264,4.9276,4.91,4.9099,4.9097,0,4.9054,4.9092,4.9138,4.9143,4.9139,4.9161,4.9161,4.9161,4.9173,4.9186,4.9193,4.9211,4.922,4.9233,4.9211,4.9177,4.9263,4.9212,4.9255,4.9255,4.9273,4.9272,4.9415,4.9285,4.9285,4.9285,4.9285,0,4.9171,4.9216,4.9183,4.9212,4.926,4.9231,4.9279,4.9274,4.9274,4.9299,4.9264,4.9288,4.9259,4.928,4.9263,4.9305,4.9311,4.9303,4.9297,4.9305,4.9305,4.9309,4.9301,4.9288,4.9288,4.9287,4.9286,0,4.9293,4.9273,4.932,4.9311,4.931,4.9345,4.9337,4.9362,4.935,4.9383,4.9389,4.937,4.9393,4.9372,4.9396,4.9384,4.9439,4.9426,4.9437,4.9432,4.9475,4.947,4.9624,4.9642,4.9504,4.9505,4.9506,0,4.9367,4.94,4.9393,4.9407,4.9408,4.9432,4.9443,4.9415,4.9428,4.9433,4.9457,4.9477,4.9491,4.953,4.9518,4.9535,4.952,4.9573,4.9522,4.9527,4.9516,4.9513,4.9515,4.9582,4.9584,4.9585,4.9586,0,4.9499,4.9487,4.9505,4.9518,4.9532,4.9542,4.9549,4.9562,4.9533,4.955,4.9572,4.9583,4.9605,4.9624,4.9637,4.9635,4.9605,4.9603,4.9613,4.9619,4.9622,4.9617,4.9462,4.9599,4.9597,4.9597,4.9596,4.9595,4.9597,4.9623,4.9621,4.964,4.9642,4.9649,4.967,4.966,4.9678,4.9693,4.9676,4.9702,4.9702,4.9715,4.9717,4.9737,4.9715,4.973,4.9734,4.9737,4.9742,4.9622,4.974,4.9739,4.9739,4.9739,4.9738,0,4.9724,4.972,4.9739,4.9748,4.9763,4.9733,4.9738,4.9752,4.9776,4.9778,4.9792,4.9816,4.9834,4.9823,4.9838,4.9856,4.9842,4.986,4.9857,4.9856,4.9763,4.9751,4.9871,4.9871,4.9871,4.9871,4.9871,4.987,4.9792,4.9832,4.9819,4.9859,4.9855,4.9879,4.9884,4.9889,4.989,4.9919,4.9933,4.9925,4.9921,4.9935,4.9949,4.9946,4.9951,4.9974,4.9965,4.9877,4.9864,4.9851,4.9839,4.9976,4.9976,5.0056,5.0057,5.0058]}]]